Mosby, MO

6:44 PM CST on December 05, 2019 (GMT -0600)
Clay County Regional

Weather History for KGPH - October, 2019

Change the Weather History Date:

Sunday, October 27, 2019

  Actual Average (WUND) Record (WUND)
Temperature  
Mean Temperature 46 °F -  
Max Temperature 59 °F - - (-1)
Min Temperature 32 °F - - (-1)
Degree Days  
Heating Degree Days 20    
Moisture  
Dew Point 37 °F    
Average Humidity 75    
Maximum Humidity 100    
Minimum Humidity 48    
Precipitation  
Precipitation 0.00 in - - ()
Sea Level Pressure  
Sea Level Pressure 29.93 in    
Wind  
Wind Speed 2 mph ()    
Max Wind Speed 13 mph    
Max Gust Speed 16 mph    
Visibility 9.3 miles    
Events      
Averages and records for this station are not official NWS values.
T = Trace of Precipitation, MM = Missing Value Source: Averaged Metar Reports

Daily Weather History Graph

Daily Weather History Graph

Search for Another Location

Airport or City:

Astronomy

Oct. 27, 2019 Rise Set
Actual Time 7:39 AM CDT 6:22 PM CDT
Civil Twilight 7:11 AM CDT 6:49 PM CDT
Nautical Twilight 6:40 AM CDT 7:21 PM CDT
Astronomical Twilight 6:09 AM CDT 7:52 PM CDT
Moon 6:49 AM CDT (10/27) 6:31 PM CDT (10/27)
Length of Visible Light 11h 37m
Length of Day
10h 42m
Waning Crescent, 0% of the Moon is Illuminated
Oct 27
Waning Crescent
Oct 27
New
Nov 4
First Quarter
Nov 12
Full
Nov 19
Last Quarter

Hourly Weather History & Observations

Time (CDT) Temp. Windchill Dew Point Humidity Pressure Visibility Wind Dir Wind Speed Gust Speed Precip Events Conditions
12:15 AM 37.4 °F - 37.4 °F 100% 29.77 in 10.0 mi Calm Calm - N/A   Clear
12:35 AM 37.4 °F - 37.4 °F 100% 29.77 in 10.0 mi Calm Calm - N/A   Clear
12:55 AM 37.4 °F - 37.4 °F 100% 29.78 in 10.0 mi Calm Calm - N/A   Clear
1:15 AM 37.4 °F - 37.4 °F 100% 29.78 in 7.0 mi Calm Calm - N/A   Clear
1:35 AM 37.4 °F - 35.6 °F 93% 29.79 in 7.0 mi Calm Calm - N/A   Clear
2:35 AM 37.4 °F - 35.6 °F 93% 29.80 in 10.0 mi Calm Calm - N/A   Clear
2:55 AM 37.4 °F - 35.6 °F 93% 29.80 in 7.0 mi Calm Calm - N/A   Clear
3:15 AM 35.6 °F - 35.6 °F 100% 29.81 in 5.0 mi Calm Calm - N/A   Clear
3:35 AM 35.6 °F - 35.6 °F 100% 29.82 in 5.0 mi Calm Calm - N/A   Mist
3:55 AM 35.6 °F - 33.8 °F 93% 29.82 in 10.0 mi Calm Calm - N/A   Clear
4:15 AM 35.6 °F - 35.6 °F 100% 29.83 in 10.0 mi Calm Calm - N/A   Clear
4:35 AM 35.6 °F - 33.8 °F 93% 29.83 in 10.0 mi Calm Calm - N/A   Clear
4:55 AM 35.6 °F - 33.8 °F 93% 29.83 in 7.0 mi Calm Calm - N/A   Clear
6:15 AM 33.8 °F - 33.8 °F 100% 29.86 in 10.0 mi Calm Calm - N/A   Clear
6:35 AM 33.8 °F - 33.8 °F 100% 29.87 in 10.0 mi Calm Calm - N/A   Clear
6:55 AM 33.8 °F - 32.0 °F 93% 29.88 in 10.0 mi Calm Calm - N/A   Clear
7:15 AM 33.8 °F - 32.0 °F 93% 29.89 in 10.0 mi Calm Calm - N/A   Clear
7:35 AM 32.0 °F - 32.0 °F 100% 29.89 in 10.0 mi Calm Calm - N/A   Clear
7:55 AM 33.8 °F - 32.0 °F 93% 29.90 in 10.0 mi Calm Calm - N/A   Clear
8:15 AM 33.8 °F - 32.0 °F 93% 29.91 in 10.0 mi Calm Calm - N/A   Clear
8:35 AM 33.8 °F - 32.0 °F 93% 29.92 in 10.0 mi Calm Calm - N/A   Clear
8:55 AM 33.8 °F - 32.0 °F 93% 29.92 in 7.0 mi Calm Calm - N/A   Clear
9:15 AM 35.6 °F - 33.8 °F 93% 29.94 in 7.0 mi Calm Calm - N/A   Clear
9:35 AM 37.4 °F - 37.4 °F 100% 29.96 in 4.0 mi Calm Calm - N/A   Clear
9:55 AM 42.8 °F - 39.2 °F 87% 29.97 in 10.0 mi Calm Calm - N/A   Clear
10:15 AM 44.6 °F 42.2 °F 39.2 °F 81% 29.97 in 10.0 mi North 4.6 mph - N/A   Clear
10:35 AM 44.6 °F 40.2 °F 39.2 °F 81% 29.98 in 10.0 mi North 8.1 mph - N/A   Clear
10:55 AM 46.4 °F 43.5 °F 39.2 °F 76% 29.98 in 10.0 mi NNW 5.8 mph - N/A   Clear
11:15 AM 48.2 °F - 39.2 °F 71% 29.99 in 10.0 mi North 4.6 mph - N/A   Clear
11:35 AM 50.0 °F - 37.4 °F 62% 29.99 in 7.0 mi North 5.8 mph - N/A   Clear
11:55 AM 50.0 °F - 39.2 °F 66% 29.99 in 7.0 mi NNW 6.9 mph - N/A   Clear
12:55 PM 51.8 °F - 39.2 °F 62% 30.00 in 10.0 mi North 4.6 mph - N/A   Clear
1:15 PM 53.6 °F - 39.2 °F 58% 29.99 in 10.0 mi NW 3.5 mph - N/A   Clear
1:35 PM 53.6 °F - 39.2 °F 58% 29.98 in 10.0 mi North 3.5 mph - N/A   Clear
1:55 PM 55.4 °F - 39.2 °F 54% 29.97 in 10.0 mi Calm Calm - N/A   Clear
2:35 PM 55.4 °F - 39.2 °F 54% 29.97 in 10.0 mi Calm Calm - N/A   Unknown
3:15 PM 57.2 °F - 39.2 °F 51% 29.95 in 10.0 mi North 6.9 mph - N/A   Clear
3:35 PM 59.0 °F - 39.2 °F 48% 29.95 in 10.0 mi North 3.5 mph - N/A   Clear
3:55 PM 59.0 °F - 39.2 °F 48% 29.95 in 10.0 mi NNW 6.9 mph - N/A   Clear
4:15 PM 59.0 °F - 39.2 °F 48% 29.95 in 10.0 mi NNE 6.9 mph - N/A   Clear
4:35 PM 59.0 °F - 39.2 °F 48% 29.96 in 10.0 mi North 5.8 mph - N/A   Clear
4:55 PM 59.0 °F - 39.2 °F 48% 29.97 in 10.0 mi NNW 4.6 mph - N/A   Clear
5:15 PM 59.0 °F - 39.2 °F 48% 29.97 in 7.0 mi NNE 3.5 mph - N/A   Clear
5:35 PM 59.0 °F - 39.2 °F 48% 29.97 in 10.0 mi North 5.8 mph - N/A   Clear
5:55 PM 57.2 °F - 39.2 °F 51% 29.97 in 10.0 mi North 6.9 mph - N/A   Clear
6:15 PM 55.4 °F - 39.2 °F 54% 29.97 in 10.0 mi North 5.8 mph - N/A   Clear
6:35 PM 53.6 °F - 39.2 °F 58% 29.97 in 10.0 mi NNW 6.9 mph - N/A   Clear
7:35 PM 51.8 °F - 39.2 °F 62% 29.99 in 10.0 mi North 11.5 mph 16.1 mph N/A   Overcast
7:55 PM 51.8 °F - 37.4 °F 58% 30.00 in 10.0 mi North 8.1 mph - N/A   Overcast
8:15 PM 50.0 °F - 37.4 °F 62% 30.01 in 10.0 mi North 9.2 mph - N/A   Overcast
8:35 PM 50.0 °F - 37.4 °F 62% 30.01 in 10.0 mi North 10.4 mph - N/A   Overcast
9:15 PM 48.2 °F - 37.4 °F 66% 30.02 in 10.0 mi North 8.1 mph - N/A   Mostly Cloudy
9:55 PM 46.4 °F 40.7 °F 35.6 °F 66% 30.03 in 10.0 mi North 12.7 mph - N/A   Overcast
10:15 PM 46.4 °F 45.2 °F 35.6 °F 66% 30.04 in 10.0 mi North 3.5 mph - N/A   Overcast
10:55 PM 46.4 °F 41.9 °F 35.6 °F 66% 30.06 in 10.0 mi North 9.2 mph - N/A   Mostly Cloudy
11:15 PM 46.4 °F 42.9 °F 35.6 °F 66% 30.07 in 10.0 mi NNW 6.9 mph - N/A   Mostly Cloudy
11:35 PM 46.4 °F 41.9 °F 35.6 °F 66% 30.07 in 10.0 mi North 9.2 mph - N/A   Unknown
11:55 PM 46.4 °F 41.1 °F 35.6 °F 66% 30.07 in 10.0 mi North 11.5 mph - N/A   Overcast